User: anonymous   Login
Location: Mentone
(34.5413°N, 85.5351°W)
Time: 03:09:12
(UTC-06:00)
Language:

S-56A Canister/Altair - Orbit

View from above orbital plane
View from above orbital plane
View from above satellite
View from above satellite

Ground track
Ground track

The orbit data is extracted from the following two-line orbital elements,

1    82U 61004B   17327.58264847 +.00000112 +00000-0 +11614-3 0  9995
2    82 038.8636 067.1569 1173703 242.5083 105.1554 12.25896304692824
Epoch (UTC): 23 November 2017 13:59:00
Eccentricity: 0.1173703
inclination: 38.8636°
perigee height: 634 km
apogee height: 2499 km
right ascension of ascending node: 67.1569°
argument of perigee: 242.5083°
revolutions per day: 12.25896304
mean anomaly at epoch: 105.1554°
orbit number at epoch: 69282

The dashed part of the orbit path shows where the satellite is in the earth's shadow,  

DLR